Location: PSU-Greenbush Astrophysical Observatory
(37.5140°N, 94.9880°W)
Time: 19:12:01
(UTC-06:00)

LightSail 2 - Visible Passes

Search period start: 06 December 2019 00:00
Search period end: 16 December 2019 00:00
Orbit: 696 x 730 km, 24.0° (Epoch: 06 December)

Date Brightness Start Highest point End Pass type
(mag) Time Alt. Az. Time Alt. Az. Time Alt. Az.
06 Dec 7.4 18:46:01 10° SW 18:49:09 16° S 18:52:15 10° SSE visible
07 Dec 7.5 17:47:56 10° SW 17:51:17 17° S 17:54:37 10° SE visible
07 Dec 7.6 19:34:20 10° SW 19:36:00 11° SSW 19:36:59 11° S visible
08 Dec 7.6 18:35:36 10° SW 18:38:09 14° SSW 18:40:42 10° SSE visible
09 Dec 7.6 17:37:14 10° SW 17:40:17 16° S 17:43:19 10° SSE visible
10 Dec 8.0 18:26:17 10° SSW 18:27:07 10° SSW 18:27:56 10° S visible
11 Dec 7.8 17:26:58 10° SW 17:29:14 13° SSW 17:31:29 10° SSE visible
